Palma de Mallorca, Spain

10:54 AM CET on February 24, 2017 (GMT +0100)
Palma De Mallorca

Weather History for LEPA - October, 2011

Change the Weather History Date:

Saturday, October 29, 2011

  Actual Average Record
Temperature  
Mean Temperature 68 °F -  
Max Temperature 76 °F 64 °F 86 °F (1999)
Min Temperature 60 °F 46 °F 40 °F (2012)
Cooling Degree Days 3    
Growing Degree Days 18 (Base 50)    
Moisture  
Dew Point 64 °F    
Average Humidity 83    
Maximum Humidity 94    
Minimum Humidity 61    
Precipitation  
Precipitation 0.31 in 0.06 in - ()
Sea Level Pressure  
Sea Level Pressure 30.06 in    
Wind  
Wind Speed 8 mph ()    
Max Wind Speed 21 mph    
Max Gust Speed 32 mph    
Visibility 6.6 miles    
Events Rain    
Averages and records for this station are not official NWS values.
T = Trace of Precipitation, MM = Missing Value Source: Averaged Metar Reports

Daily Weather History Graph

Daily Weather History Graph

Search for Another Location

Airport or City:

Trip Planner

Search our weather history database for the weather conditions in past years. The results will help you decide how hot, cold, wet, or windy it might be!

Date:

Astronomy

Oct. 29, 2011 Rise Set
Actual Time 8:13 AM CEST 6:51 PM CEST
Civil Twilight 7:45 AM CEST 7:19 PM CEST
Nautical Twilight 7:14 AM CEST 7:50 PM CEST
Astronomical Twilight 6:42 AM CEST 8:22 PM CEST
Moon 11:18 AM CEST (10/29) 8:59 PM CEST (10/29)
Length of Visible Light 11h 33m
Length of Day
10h 38m
Waxing Crescent, 10% of the Moon is Illuminated
Oct 29
Waxing Crescent
Nov 2
First Quarter
Nov 10
Full
Nov 18
Last Quarter
Nov 25
New

Hourly Weather History & Observations

Time (CEST) Temp. Dew Point Humidity Pressure Visibility Wind Dir Wind Speed Gust Speed Precip Events Conditions
12:00 AM 60.8 °F 59.0 °F 94% 30.09 in 6.2 mi NE 2.3 mph - N/A   Partly Cloudy
12:30 AM 60.8 °F 59.0 °F 94% 30.09 in 6.2 mi Variable 1.2 mph - N/A   Partly Cloudy
1:00 AM 60.8 °F 59.0 °F 94% 30.09 in 6.2 mi Variable 1.2 mph - N/A   Partly Cloudy
1:30 AM 60.8 °F 59.0 °F 94% 30.09 in 6.2 mi NNE 6.9 mph - N/A   Partly Cloudy
2:00 AM 61 °F 59 °F 90% 30.09 in 11 mi NNE 1.2 mph - -   Scattered Clouds
2:00 AM 60.8 °F 59.0 °F 94% 30.09 in 6.2 mi NE 5.8 mph - N/A   Partly Cloudy
2:30 AM 62.6 °F 60.8 °F 94% 30.09 in 6.2 mi ENE 5.8 mph - N/A   Partly Cloudy
3:00 AM 64.4 °F 62.6 °F 94% 30.09 in 6.2 mi Variable 2.3 mph - N/A   Partly Cloudy
3:30 AM 66.2 °F 60.8 °F 83% 30.06 in 6.2 mi Variable 1.2 mph - N/A   Scattered Clouds
4:00 AM 66.2 °F 60.8 °F 83% 30.06 in 6.2 mi East 1.2 mph - N/A   Scattered Clouds
4:30 AM 68.0 °F 64.4 °F 88% 30.06 in 6.2 mi ENE 4.6 mph - N/A   Scattered Clouds
5:00 AM 68.0 °F 66.2 °F 94% 30.04 in 6.2 mi NE 10.4 mph - N/A   Partly Cloudy
5:30 AM 69.8 °F 66.2 °F 88% 30.04 in 6.2 mi NE 12.7 mph - N/A   Partly Cloudy
6:00 AM 69.8 °F 66.2 °F 88% 30.04 in 6.2 mi NE 15.0 mph - N/A   Partly Cloudy
6:30 AM 69.8 °F 66.2 °F 88% 30.04 in 6.2 mi NE 15.0 mph - N/A   Partly Cloudy
7:00 AM 68.0 °F 66.2 °F 94% 30.04 in 6.2 mi NE 12.7 mph - N/A   Partly Cloudy
7:30 AM 69.8 °F 66.2 °F 88% 30.04 in 6.2 mi NE 13.8 mph - N/A   Partly Cloudy
7:49 AM 69.8 °F 66.2 °F 88% 30.04 in 6.2 mi NE 13.8 mph 27.6 mph N/A Rain Rain
8:00 AM 69.8 °F 66.2 °F 88% 30.04 in 6.2 mi NNE 16.1 mph 27.6 mph N/A   Scattered Clouds
8:30 AM 69.8 °F 68.0 °F 94% 30.04 in 5.6 mi NE 12.7 mph - N/A Rain Light Rain
9:00 AM 69.8 °F 68.0 °F 94% 30.04 in 6.2 mi NE 15.0 mph - N/A   Scattered Clouds
9:30 AM 69.8 °F 66.2 °F 88% 30.06 in 6.2 mi NE 16.1 mph - N/A   Scattered Clouds
10:00 AM 71.6 °F 66.2 °F 83% 30.04 in 6.2 mi NE 20.7 mph - N/A   Partly Cloudy
10:30 AM 71.6 °F 66.2 °F 83% 30.06 in 6.2 mi NE 19.6 mph 32.2 mph N/A   Partly Cloudy
11:00 AM 71.6 °F 66.2 °F 83% 30.06 in 6.2 mi NE 16.1 mph - N/A   Mostly Cloudy
11:30 AM 71.6 °F 66.2 °F 83% 30.06 in 6.2 mi ENE 12.7 mph - N/A   Mostly Cloudy
12:00 PM 71.6 °F 66.2 °F 83% 30.09 in 6.2 mi ENE 11.5 mph - N/A   Mostly Cloudy
12:30 PM 73.4 °F 66.2 °F 78% 30.06 in 6.2 mi ENE 12.7 mph - N/A   Mostly Cloudy
1:00 PM 73.4 °F 66.2 °F 78% 30.06 in 6.2 mi ENE 11.5 mph - N/A   Mostly Cloudy
1:30 PM 75.2 °F 64.4 °F 69% 30.06 in 6.2 mi ENE 13.8 mph - N/A   Scattered Clouds
2:00 PM 76 °F 65 °F 62% 30.07 in 12 mi East 13.8 mph - -   Partly Cloudy
2:00 PM 75.2 °F 62.6 °F 65% 30.06 in 6.2 mi ENE 15.0 mph 26.5 mph N/A   Scattered Clouds
2:30 PM 75.2 °F 64.4 °F 69% 30.04 in 6.2 mi East 13.8 mph - N/A   Partly Cloudy
3:00 PM 75.2 °F 60.8 °F 61% 30.04 in 6.2 mi ENE 16.1 mph - N/A   Partly Cloudy
3:30 PM 75.2 °F 62.6 °F 65% 30.04 in 6.2 mi ENE 12.7 mph - N/A   Scattered Clouds
4:00 PM 75.2 °F 64.4 °F 69% 30.04 in 6.2 mi ENE 15.0 mph - N/A   Scattered Clouds
4:30 PM 73.4 °F 62.6 °F 69% 30.04 in 6.2 mi NE 15.0 mph - N/A   Scattered Clouds
5:00 PM 73.4 °F 62.6 °F 69% 30.04 in 6.2 mi NE 13.8 mph - N/A   Scattered Clouds
5:30 PM 73.4 °F 60.8 °F 65% 30.04 in 6.2 mi ENE 11.5 mph - N/A   Scattered Clouds
6:00 PM 73.4 °F 60.8 °F 65% 30.04 in 6.2 mi ENE 15.0 mph - N/A   Scattered Clouds
6:30 PM 71.6 °F 62.6 °F 73% 30.06 in 6.2 mi ENE 12.7 mph - N/A   Scattered Clouds
7:00 PM 69.8 °F 64.4 °F 83% 30.06 in 6.2 mi NE 9.2 mph - N/A   Scattered Clouds
7:30 PM 69.8 °F 64.4 °F 83% 30.06 in 6.2 mi NNE 15.0 mph - N/A   Scattered Clouds
8:00 PM 69 °F 64 °F 80% 30.09 in 16 mi NE 11.5 mph - -   Mostly Cloudy
8:00 PM 69.8 °F 64.4 °F 83% 30.09 in 6.2 mi NE 16.1 mph - N/A   Scattered Clouds
8:30 PM 68.0 °F 64.4 °F 88% 30.09 in 6.2 mi NNE 10.4 mph - N/A   Partly Cloudy
9:00 PM 68.0 °F 64.4 °F 88% 30.09 in 6.2 mi NNE 11.5 mph - N/A   Partly Cloudy
9:30 PM 68.0 °F 64.4 °F 88% 30.09 in 6.2 mi NE 11.5 mph - N/A   Partly Cloudy
10:00 PM 69.8 °F 64.4 °F 83% 30.09 in 6.2 mi NNE 11.5 mph - N/A   Partly Cloudy
10:30 PM 68.0 °F 64.4 °F 88% 30.09 in 6.2 mi NE 11.5 mph - N/A   Partly Cloudy
11:00 PM 68.0 °F 64.4 °F 88% 30.09 in 6.2 mi NE 11.5 mph - N/A   Partly Cloudy
11:30 PM 68.0 °F 64.4 °F 88% 30.09 in 6.2 mi NE 11.5 mph - N/A   Partly Cloudy